Погода в Большом Истоке

Россия / Свердловская область     56°43′16″N   60°46′10″E
темп.,
°C
ветер,
м/с
пор.,
м/с
влажн.,
%
обл.,
%
осадки,
мм/ч
давл.,
гПа
погр.,
м
6 мая, чт
чт623:00+8з6137795 1.2 10011164
02:00+6з612745 0.0 10031010
05:00+5з6127715 0.0 10051017
08:00+5з61269100 0.0 10071346
11:00+8з7115597 0.1 10091932
14:00+10зсз7113996 0.0 10111994
17:00+11зсз7113877 0.0 10121984
20:00+9зсз410445 0.0 10141525
7 мая, пт
пт723:00+5зюз28650 0.0 1017200
02:00+4зюз27755 0.0 1018142
05:00+3зюз24825 0.0 102077
08:00+9з376396 0.0 1021433
11:00+14з3547100 0.0 10201173
14:00+18зюз24395 0.0 10191862
17:00+19зюз34335 0.0 10192326
20:00+15зсз245098 0.0 101999
8 мая, сб
сб823:00+13зсз236499 0.0 102061
02:00+10юз117779 0.0 102010
05:00+11зюз1169100 0.0 102010
08:00+13зсз1258100 0.0 1020132
11:00+19з0136100 0.0 10191793
14:00+20юв0132100 0.0 10182275
17:00+18ссз1142100 0.1 10191443
20:00+15зсз2355100 0.0 101978
9 мая, вс
вс923:00+13ссз1160100 0.1 102014
02:00+11св1267100 0.0 101916
05:00+10ссв227299 0.0 102017
08:00+14св356059 0.1 1020349
11:00+19всв363816 0.1 10192241
14:00+19всв343570 0.0 10192063
17:00+19св3540100 0.0 10191906
20:00+15вюв386143 0.2 1020298
10 мая, пн
пн1023:00+11св117782 0.2 102111
02:00+11с117888 0.0 102223
05:00+9с11855 0.0 102210
08:00+15св12591 0.0 1023266
11:00+20в22400 0.0 10231687
14:00+23ююв223199 0.0 10212746
17:00+20зюз333984 0.0 10211660
20:00+17зюз2250100 0.0 102129